Location: Krasnoyarskiy Pitomnik
(51.1333°N, 71.6167°E)
Time: 19:22:00
(UTC+00:00)

A-11 Canister half - All Passes

Search period start: 19 April 2024 00:00
Search period end: 29 April 2024 00:00
Orbit: 1525 x 1683 km, 47.3° (Epoch: 18 April)

Date Brightness Start Highest point End Pass type
(mag) Time Alt. Az. Time Alt. Az. Time Alt. Az.
19 Apr - 01:01:55 10° SSW 01:10:53 39° SE 01:19:57 10° E daylight
19 Apr - 03:05:01 10° WSW 03:15:00 67° SSE 03:25:02 10° E daylight
19 Apr - 05:09:43 10° W 05:19:47 69° S 05:29:46 10° ESE daylight
19 Apr - 07:14:45 10° W 07:24:04 43° SW 07:33:12 10° SSE daylight
19 Apr - 09:21:45 10° W 09:27:00 16° SW 09:32:12 10° SSW daylight
19 Apr - 22:43:39 10° SE 22:46:30 11° ESE 22:49:22 10° ESE visible
20 Apr - 00:40:19 10° SSW 00:49:10 37° SE 00:58:08 10° E daylight
20 Apr - 02:43:17 10° WSW 02:53:14 66° SSE 03:03:16 10° E daylight
20 Apr - 04:47:56 10° W 04:58:02 70° S 05:08:01 10° ESE daylight
20 Apr - 06:52:56 10° W 07:02:20 45° SSW 07:11:35 10° SE daylight
20 Apr - 08:59:42 10° W 09:05:21 17° SW 09:10:57 10° SSW daylight
20 Apr - 22:23:14 10° SE 22:24:53 10° ESE 22:26:32 10° ESE visible
21 Apr - 00:18:44 10° SSW 00:27:28 36° SE 00:36:20 10° E daylight
21 Apr - 02:21:34 10° WSW 02:31:29 65° SSE 02:41:28 10° E daylight
21 Apr - 04:26:10 10° W 04:36:15 71° S 04:46:16 10° ESE daylight
21 Apr - 06:31:09 10° W 06:40:37 46° SSW 06:49:57 10° SE daylight
21 Apr - 08:37:41 10° W 08:43:42 18° SW 08:49:39 10° SSW daylight
21 Apr - 23:57:09 10° SSW 00:05:45 35° SE 00:14:30 10° E daylight
22 Apr - 01:59:50 10° WSW 02:09:43 64° SSE 02:19:42 10° E daylight
22 Apr - 04:04:23 10° W 04:14:28 71° S 04:24:31 10° ESE daylight
22 Apr - 06:09:21 10° W 06:18:53 48° SSW 06:28:17 10° SE daylight
22 Apr - 08:15:42 10° W 08:22:02 19° SW 08:28:20 10° SSW daylight
22 Apr - 23:35:35 10° SSW 23:44:04 33° SE 23:52:41 10° E daylight
23 Apr - 01:38:06 10° WSW 01:47:58 63° SSE 01:57:55 10° E daylight
23 Apr - 03:42:37 10° W 03:52:41 72° S 04:02:46 10° ESE daylight
23 Apr - 05:47:34 10° W 05:57:09 49° SSW 06:06:37 10° SE daylight
23 Apr - 07:53:44 10° W 08:00:23 20° SW 08:06:58 10° S daylight
23 Apr - 23:14:02 10° SSW 23:22:22 32° SE 23:30:50 10° E visible
24 Apr - 01:16:24 10° WSW 01:26:12 62° SSE 01:36:09 10° E daylight
24 Apr - 03:20:52 10° W 03:30:55 72° S 03:41:01 10° ESE daylight
24 Apr - 05:25:47 10° W 05:35:25 50° SSW 05:44:58 10° SE daylight
24 Apr - 07:31:48 10° W 07:38:43 21° SW 07:45:34 10° S daylight
24 Apr - 22:52:30 10° SSW 23:00:40 31° SE 23:09:00 10° E visible
25 Apr - 00:54:41 10° SW 01:04:26 61° SSE 01:14:22 10° E daylight
25 Apr - 02:59:05 10° W 03:09:09 72° S 03:19:14 10° ESE daylight
25 Apr - 05:04:00 10° W 05:13:40 52° SSW 05:23:16 10° SE daylight
25 Apr - 07:09:53 10° W 07:17:02 22° SW 07:24:09 10° S daylight
25 Apr - 22:30:58 10° S 22:38:59 29° SE 22:47:09 10° E visible
26 Apr - 00:32:58 10° SW 00:42:41 59° SSE 00:52:35 10° E daylight
26 Apr - 02:37:19 10° W 02:47:22 72° S 02:57:28 10° ESE daylight
26 Apr - 04:42:12 10° W 04:51:56 53° SSW 05:01:35 10° SE daylight
26 Apr - 06:47:59 10° W 06:55:23 24° SW 07:02:43 10° S daylight
26 Apr - 22:09:28 10° S 22:17:18 28° SE 22:25:17 10° E visible
27 Apr - 00:11:17 10° SW 00:20:56 58° SSE 00:30:48 10° E daylight
27 Apr - 02:15:34 10° W 02:25:35 73° S 02:35:42 10° E daylight
27 Apr - 04:20:26 10° W 04:30:11 55° SSW 04:39:54 10° SE daylight
27 Apr - 06:26:06 10° W 06:33:41 25° SW 06:41:14 10° S daylight
27 Apr - 21:47:58 10° S 21:55:37 27° SE 22:03:26 10° E visible
27 Apr - 23:49:35 10° SW 23:59:11 57° SSE 00:09:00 10° E daylight
28 Apr - 01:53:48 10° W 02:03:49 73° S 02:13:55 10° E daylight
28 Apr - 03:58:39 10° W 04:08:26 56° SSW 04:18:12 10° SE daylight
28 Apr - 06:04:13 10° W 06:12:01 26° SW 06:19:45 10° S daylight
28 Apr - 21:26:29 10° S 21:33:56 25° SE 21:41:32 10° E visible
28 Apr - 23:27:54 10° SW 23:37:26 55° SSE 23:47:13 10° E daylight
